Location: Val de Santo Domingo
(40.0124°N, 4.3273°W)
Time: 04:35:40
(UTC+00:00)

Cosmos 1538 Rocket - Pass Details

Date: 18 July 2025
Orbit: 748 x 787 km, 74.0° (Epoch: 14 December)

Event Time Altitude Azimuth Distance (km) Brightness Sun altitude
Rises 21:44:46 0° 345° (NNW) 3,286 8.5 -18.8°
Reaches altitude 10° 21:47:13 10° 350° (N) 2,356 7.4 -19.1°
Maximum altitude 21:52:28 54° 68° (ENE) 958 4.3 -19.7°
Enters shadow 21:54:13 38° 121° (ESE) 1,197 4.5 -19.9°
